Time,TemperatureF,DewpointF,PressureIn,WindDirection,WindDirectionDegrees,WindSpeedMPH,WindSpeedGustMPH,Humidity,HourlyPrecipIn,Conditions,Clouds,dailyrainin,SoftwareType,DateUTC
2013-07-30 00:01:00,59.4,56.1,30.21,SW,225,0.0,0.0,89,0.00,,---,0.00,VWS V14.01,2013-07-30 04:01:00,
2013-07-30 00:06:00,59.4,56.4,30.21,South,180,0.0,0.0,90,0.00,,---,0.00,VWS V14.01,2013-07-30 04:06:00,
2013-07-30 00:11:00,59.4,56.7,30.21,SSW,202,0.0,0.0,91,0.00,,---,0.00,VWS V14.01,2013-07-30 04:11:00,
2013-07-30 00:16:00,59.4,56.7,30.21,SSW,202,0.0,0.0,91,0.00,,---,0.00,VWS V14.01,2013-07-30 04:16:00,
2013-07-30 00:22:00,59.4,56.7,30.21,SSW,202,0.0,0.0,91,0.00,,---,0.00,VWS V14.01,2013-07-30 04:22:00,
2013-07-30 00:27:00,59.5,56.9,30.21,SW,225,0.0,0.0,91,0.00,,---,0.00,VWS V14.01,2013-07-30 04:27:00,
2013-07-30 00:32:00,59.5,56.9,30.21,South,180,0.0,0.0,91,0.00,,---,0.00,VWS V14.01,2013-07-30 04:32:00,
2013-07-30 00:37:00,59.5,56.9,30.21,SW,225,0.0,0.0,91,0.00,,---,0.00,VWS V14.01,2013-07-30 04:37:00,
2013-07-30 00:42:00,59.4,56.7,30.21,SW,225,0.0,0.0,91,0.00,,---,0.00,VWS V14.01,2013-07-30 04:42:00,
2013-07-30 00:47:00,59.2,56.6,30.21,SW,225,0.0,0.0,91,0.00,,---,0.00,VWS V14.01,2013-07-30 04:47:00,
2013-07-30 00:52:00,59.0,56.4,30.21,SW,225,0.0,0.0,91,0.00,,---,0.00,VWS V14.01,2013-07-30 04:52:00,
2013-07-30 00:57:00,58.6,56.3,30.21,SW,225,0.0,0.0,92,0.00,,---,0.00,VWS V14.01,2013-07-30 04:57:00,
2013-07-30 01:02:00,58.3,56.0,30.21,SW,225,0.0,0.0,92,0.00,,---,0.00,VWS V14.01,2013-07-30 05:02:00,
2013-07-30 01:07:00,58.1,55.8,30.21,SW,225,0.0,0.0,92,0.00,,---,0.00,VWS V14.01,2013-07-30 05:07:00,
2013-07-30 01:12:00,58.1,55.8,30.21,SW,225,0.0,0.0,92,0.00,,---,0.00,VWS V14.01,2013-07-30 05:12:00,
2013-07-30 01:17:00,57.7,55.4,30.21,SW,225,0.0,0.0,92,0.00,,---,0.00,VWS V14.01,2013-07-30 05:17:00,
2013-07-30 01:22:00,57.6,55.3,30.21,South,180,0.0,0.0,92,0.00,,---,0.00,VWS V14.01,2013-07-30 05:22:00,
2013-07-30 01:27:00,57.4,55.1,30.21,South,180,0.0,0.0,92,0.00,,---,0.00,VWS V14.01,2013-07-30 05:27:00,
2013-07-30 01:32:00,57.2,54.9,30.21,South,180,0.0,0.0,92,0.00,,---,0.00,VWS V14.01,2013-07-30 05:32:00,
2013-07-30 01:37:00,57.2,54.9,30.21,South,180,0.0,0.0,92,0.00,,---,0.00,VWS V14.01,2013-07-30 05:37:00,
2013-07-30 01:42:00,57.0,54.7,30.21,South,180,0.0,0.0,92,0.00,,---,0.00,VWS V14.01,2013-07-30 05:42:00,
2013-07-30 01:47:00,56.8,54.5,30.21,South,180,0.0,0.0,92,0.00,,---,0.00,VWS V14.01,2013-07-30 05:47:00,
2013-07-30 01:52:00,56.7,54.4,30.21,South,180,0.0,0.0,92,0.00,,---,0.00,VWS V14.01,2013-07-30 05:52:00,
2013-07-30 01:57:00,56.7,54.4,30.21,South,180,0.0,0.0,92,0.00,,---,0.00,VWS V14.01,2013-07-30 05:57:00,
2013-07-30 02:02:00,56.7,54.4,30.21,South,180,0.0,0.0,92,0.00,,---,0.00,VWS V14.01,2013-07-30 06:02:00,
2013-07-30 02:07:00,56.5,54.2,30.21,South,180,0.0,0.0,92,0.00,,---,0.00,VWS V14.01,2013-07-30 06:07:00,
2013-07-30 02:12:00,56.5,54.2,30.21,South,180,0.0,0.0,92,0.00,,---,0.00,VWS V14.01,2013-07-30 06:12:00,
2013-07-30 02:17:00,56.5,54.2,30.21,South,180,0.0,0.0,92,0.00,,---,0.00,VWS V14.01,2013-07-30 06:17:00,
2013-07-30 02:22:00,56.5,54.2,30.21,SW,225,0.0,0.0,92,0.00,,---,0.00,VWS V14.01,2013-07-30 06:22:00,
2013-07-30 02:27:00,56.5,54.2,30.21,SW,225,0.0,0.0,92,0.00,,---,0.00,VWS V14.01,2013-07-30 06:27:00,
2013-07-30 02:32:00,56.5,54.2,30.21,South,180,0.0,0.0,92,0.00,,---,0.00,VWS V14.01,2013-07-30 06:32:00,
2013-07-30 02:38:00,56.5,54.2,30.21,South,180,0.0,0.0,92,0.00,,---,0.00,VWS V14.01,2013-07-30 06:38:00,
2013-07-30 02:43:00,56.3,54.0,30.21,South,180,0.0,0.0,92,0.00,,---,0.00,VWS V14.01,2013-07-30 06:43:00,
2013-07-30 02:48:00,56.5,54.5,30.21,South,180,0.0,0.0,93,0.00,,---,0.00,VWS V14.01,2013-07-30 06:48:00,
2013-07-30 02:53:00,56.7,54.7,30.21,South,180,0.0,0.0,93,0.00,,---,0.00,VWS V14.01,2013-07-30 06:53:00,
2013-07-30 02:58:00,56.8,54.8,30.21,SW,225,0.0,0.0,93,0.00,,---,0.00,VWS V14.01,2013-07-30 06:58:00,
2013-07-30 03:03:00,56.8,54.5,30.21,SE,135,0.0,0.0,92,0.00,,---,0.00,VWS V14.01,2013-07-30 07:03:00,
2013-07-30 03:08:00,57.0,54.7,30.21,ESE,112,0.0,0.0,92,0.00,,---,0.00,VWS V14.01,2013-07-30 07:08:00,
2013-07-30 03:13:00,57.0,54.7,30.21,SSE,158,0.0,0.0,92,0.00,,---,0.00,VWS V14.01,2013-07-30 07:13:00,
2013-07-30 03:18:00,57.0,54.7,30.21,SSE,158,0.0,0.0,92,0.00,,---,0.00,VWS V14.01,2013-07-30 07:18:00,
2013-07-30 03:23:00,56.8,54.5,30.21,SE,135,0.0,0.0,92,0.00,,---,0.00,VWS V14.01,2013-07-30 07:23:00,
2013-07-30 03:28:00,56.8,54.5,30.21,SSW,202,0.0,0.0,92,0.00,,---,0.00,VWS V14.01,2013-07-30 07:28:00,
2013-07-30 03:33:00,56.8,54.5,30.21,SW,225,0.0,0.0,92,0.00,,---,0.00,VWS V14.01,2013-07-30 07:33:00,
2013-07-30 03:38:00,56.7,54.4,30.21,SW,225,0.0,0.0,92,0.00,,---,0.00,VWS V14.01,2013-07-30 07:38:00,
2013-07-30 03:43:00,56.5,54.2,30.21,SW,225,0.0,0.0,92,0.00,,---,0.00,VWS V14.01,2013-07-30 07:43:00,
2013-07-30 03:48:00,56.5,54.2,30.21,SW,225,0.0,0.0,92,0.00,,---,0.00,VWS V14.01,2013-07-30 07:48:00,
2013-07-30 03:53:00,56.5,54.2,30.21,SW,225,0.0,0.0,92,0.00,,---,0.00,VWS V14.01,2013-07-30 07:53:00,
2013-07-30 03:58:00,56.3,54.0,30.21,SW,225,0.0,0.0,92,0.00,,---,0.00,VWS V14.01,2013-07-30 07:58:00,
2013-07-30 04:03:00,56.3,54.0,30.21,SW,225,0.0,0.0,92,0.00,,---,0.00,VWS V14.01,2013-07-30 08:03:00,
2013-07-30 04:08:00,56.3,54.0,30.18,SW,225,0.0,0.0,92,0.00,,---,0.00,VWS V14.01,2013-07-30 08:08:00,
2013-07-30 04:13:00,56.3,54.0,30.18,SW,225,0.0,0.0,92,0.00,,---,0.00,VWS V14.01,2013-07-30 08:13:00,
2013-07-30 04:18:00,56.5,54.2,30.18,SW,225,0.0,0.0,92,0.00,,---,0.00,VWS V14.01,2013-07-30 08:18:00,
2013-07-30 04:23:00,56.3,54.0,30.18,SW,225,0.0,0.0,92,0.00,,---,0.00,VWS V14.01,2013-07-30 08:23:00,
2013-07-30 04:28:00,56.5,54.2,30.18,SW,225,0.0,0.0,92,0.00,,---,0.00,VWS V14.01,2013-07-30 08:28:00,
2013-07-30 04:33:00,56.5,54.2,30.18,SW,225,0.0,0.0,92,0.00,,---,0.00,VWS V14.01,2013-07-30 08:33:00,
2013-07-30 04:38:00,56.5,54.2,30.18,SW,225,0.0,0.0,92,0.00,,---,0.00,VWS V14.01,2013-07-30 08:38:00,
2013-07-30 04:43:00,56.5,54.2,30.21,SW,225,0.0,0.0,92,0.00,,---,0.00,VWS V14.01,2013-07-30 08:43:00,
2013-07-30 04:48:00,56.3,54.0,30.21,SW,225,0.0,0.0,92,0.00,,---,0.00,VWS V14.01,2013-07-30 08:48:00,
2013-07-30 04:53:00,56.3,54.0,30.21,SW,225,0.0,0.0,92,0.00,,---,0.00,VWS V14.01,2013-07-30 08:53:00,
2013-07-30 04:58:00,56.3,54.0,30.21,South,180,0.0,0.0,92,0.00,,---,0.00,VWS V14.01,2013-07-30 08:58:00,
2013-07-30 05:03:00,56.3,54.0,30.21,SW,225,0.0,0.0,92,0.00,,---,0.00,VWS V14.01,2013-07-30 09:03:00,
2013-07-30 05:08:00,56.3,54.0,30.21,SW,225,0.0,0.0,92,0.00,,---,0.00,VWS V14.01,2013-07-30 09:08:00,
2013-07-30 05:13:00,56.3,54.0,30.21,SW,225,0.0,0.0,92,0.00,,---,0.00,VWS V14.01,2013-07-30 09:13:00,
2013-07-30 05:18:00,56.3,54.0,30.21,SW,225,0.0,0.0,92,0.00,,---,0.00,VWS V14.01,2013-07-30 09:18:00,
2013-07-30 05:23:00,56.3,54.0,30.21,South,180,0.0,0.0,92,0.00,,---,0.00,VWS V14.01,2013-07-30 09:23:00,
2013-07-30 05:28:00,56.3,54.0,30.21,South,180,0.0,0.0,92,0.00,,---,0.00,VWS V14.01,2013-07-30 09:28:00,
2013-07-30 05:33:00,56.1,53.8,30.21,SSW,202,0.0,0.0,92,0.00,,---,0.00,VWS V14.01,2013-07-30 09:33:00,
2013-07-30 05:38:00,56.1,53.8,30.21,SSW,202,0.0,0.0,92,0.00,,---,0.00,VWS V14.01,2013-07-30 09:38:00,
2013-07-30 05:43:00,56.1,53.8,30.21,SW,225,0.0,0.0,92,0.00,,---,0.00,VWS V14.01,2013-07-30 09:43:00,
2013-07-30 05:48:00,55.9,53.7,30.21,SSW,202,0.0,0.0,92,0.00,,---,0.00,VWS V14.01,2013-07-30 09:48:00,
2013-07-30 05:53:00,55.9,53.7,30.21,SSE,158,0.0,0.0,92,0.00,,---,0.00,VWS V14.01,2013-07-30 09:53:00,
2013-07-30 05:58:00,55.9,53.7,30.21,South,180,0.0,0.0,92,0.00,,---,0.00,VWS V14.01,2013-07-30 09:58:00,
2013-07-30 06:03:00,55.8,53.5,30.21,South,180,0.0,0.0,92,0.00,,---,0.00,VWS V14.01,2013-07-30 10:03:00,
2013-07-30 06:08:00,55.9,53.7,30.21,South,180,0.0,0.0,92,0.00,,---,0.00,VWS V14.01,2013-07-30 10:08:00,
2013-07-30 06:13:00,55.9,53.7,30.21,SSW,202,0.0,0.0,92,0.00,,---,0.00,VWS V14.01,2013-07-30 10:13:00,
2013-07-30 06:18:00,56.3,54.0,30.21,South,180,0.0,0.0,92,0.00,,---,0.00,VWS V14.01,2013-07-30 10:18:00,
2013-07-30 06:23:00,56.7,54.4,30.21,East,90,0.0,0.0,92,0.00,,---,0.00,VWS V14.01,2013-07-30 10:23:00,
2013-07-30 06:28:00,56.7,54.4,30.21,SW,225,0.0,0.0,92,0.00,,---,0.00,VWS V14.01,2013-07-30 10:28:00,
2013-07-30 06:33:00,56.7,54.4,30.21,SSW,202,0.0,0.0,92,0.00,,---,0.00,VWS V14.01,2013-07-30 10:33:00,
2013-07-30 06:38:00,56.7,54.4,30.21,South,180,0.0,0.0,92,0.00,,---,0.00,VWS V14.01,2013-07-30 10:38:00,
2013-07-30 06:43:00,56.7,54.4,30.21,SW,225,0.0,0.0,92,0.00,,---,0.00,VWS V14.01,2013-07-30 10:43:00,
2013-07-30 06:48:00,56.7,54.4,30.21,SSW,202,0.0,0.0,92,0.00,,---,0.00,VWS V14.01,2013-07-30 10:48:00,
2013-07-30 06:53:00,56.7,54.4,30.21,SW,225,0.0,0.0,92,0.00,,---,0.00,VWS V14.01,2013-07-30 10:53:00,
2013-07-30 06:58:00,56.7,54.4,30.21,South,180,0.0,0.0,92,0.00,,---,0.00,VWS V14.01,2013-07-30 10:58:00,
2013-07-30 07:03:00,56.8,54.5,30.21,SSW,202,0.0,0.0,92,0.00,,---,0.00,VWS V14.01,2013-07-30 11:03:00,
2013-07-30 07:08:00,57.0,54.7,30.21,South,180,0.0,0.0,92,0.00,,---,0.00,VWS V14.01,2013-07-30 11:08:00,
2013-07-30 07:13:00,57.4,54.8,30.21,SSE,158,0.0,0.0,91,0.00,,---,0.00,VWS V14.01,2013-07-30 11:13:00,
2013-07-30 07:18:00,57.6,55.0,30.21,SW,225,0.0,0.0,91,0.00,,---,0.00,VWS V14.01,2013-07-30 11:18:00,
2013-07-30 07:23:00,57.9,55.3,30.21,South,180,0.0,0.0,91,0.00,,---,0.00,VWS V14.01,2013-07-30 11:23:00,
2013-07-30 07:28:00,58.1,55.5,30.21,SW,225,0.0,0.0,91,0.00,,---,0.00,VWS V14.01,2013-07-30 11:28:00,
2013-07-30 07:33:00,58.5,55.8,30.21,SSW,202,0.0,0.0,91,0.00,,---,0.00,VWS V14.01,2013-07-30 11:33:00,
2013-07-30 07:38:00,58.6,56.0,30.21,South,180,0.0,0.0,91,0.00,,---,0.00,VWS V14.01,2013-07-30 11:38:00,
2013-07-30 07:43:00,58.8,56.2,30.21,SW,225,3.1,3.1,91,0.00,,---,0.00,VWS V14.01,2013-07-30 11:43:00,
2013-07-30 07:48:00,59.4,56.7,30.21,South,180,3.1,4.0,91,0.00,,---,0.00,VWS V14.01,2013-07-30 11:48:00,
2013-07-30 07:53:00,60.1,57.5,30.21,SW,225,4.0,4.0,91,0.00,,---,0.00,VWS V14.01,2013-07-30 11:53:00,
2013-07-30 07:58:00,60.3,57.6,30.21,SW,225,2.7,2.7,91,0.00,,---,0.00,VWS V14.01,2013-07-30 11:58:00,
2013-07-30 08:03:00,60.6,58.0,30.21,South,180,3.1,3.1,91,0.00,,---,0.00,VWS V14.01,2013-07-30 12:03:00,
2013-07-30 08:08:00,61.7,59.0,30.24,South,180,3.6,3.6,91,0.00,,---,0.00,VWS V14.01,2013-07-30 12:08:00,
2013-07-30 08:13:00,62.2,59.6,30.24,South,180,5.4,5.4,91,0.00,,---,0.00,VWS V14.01,2013-07-30 12:13:00,
2013-07-30 08:18:00,63.1,60.8,30.24,SW,225,2.7,4.0,92,0.00,,---,0.00,VWS V14.01,2013-07-30 12:18:00,
2013-07-30 08:23:00,64.0,62.6,30.24,South,180,0.0,0.0,95,0.00,,---,0.00,VWS V14.01,2013-07-30 12:23:00,
2013-07-30 08:28:00,64.8,63.6,30.24,South,180,4.0,4.0,96,0.00,,---,0.00,VWS V14.01,2013-07-30 12:28:00,
2013-07-30 08:33:00,65.7,65.1,30.24,South,180,2.2,2.2,98,0.00,,---,0.00,VWS V14.01,2013-07-30 12:33:00,
2013-07-30 08:38:00,66.0,65.4,30.24,South,180,3.6,3.6,98,0.00,,---,0.00,VWS V14.01,2013-07-30 12:38:00,
2013-07-30 08:43:00,66.9,65.8,30.24,WSW,248,0.0,0.0,96,0.00,,---,0.00,VWS V14.01,2013-07-30 12:43:00,
2013-07-30 08:48:00,67.5,65.1,30.24,SSE,158,0.0,0.0,92,0.00,,---,0.00,VWS V14.01,2013-07-30 12:48:00,
2013-07-30 08:53:00,68.4,64.3,30.24,East,90,0.0,0.0,87,0.00,,---,0.00,VWS V14.01,2013-07-30 12:53:00,
2013-07-30 08:58:00,69.1,61.9,30.24,West,270,0.0,0.0,78,0.00,,---,0.00,VWS V14.01,2013-07-30 12:58:00,
2013-07-30 09:03:00,69.8,59.2,30.24,SW,225,2.2,3.1,69,0.00,,---,0.00,VWS V14.01,2013-07-30 13:03:00,
2013-07-30 09:08:00,70.0,56.4,30.24,East,90,0.0,0.0,62,0.00,,---,0.00,VWS V14.01,2013-07-30 13:08:00,
2013-07-30 09:13:00,70.5,56.4,30.24,WNW,292,0.0,0.0,61,0.00,,---,0.00,VWS V14.01,2013-07-30 13:13:00,
2013-07-30 09:18:00,70.9,57.2,30.24,SW,225,0.0,3.1,62,0.00,,---,0.00,VWS V14.01,2013-07-30 13:18:00,
2013-07-30 09:23:00,71.1,56.0,30.24,SW,225,3.1,3.1,59,0.00,,---,0.00,VWS V14.01,2013-07-30 13:23:00,
2013-07-30 09:28:00,71.6,55.1,30.24,East,90,0.0,3.6,56,0.00,,---,0.00,VWS V14.01,2013-07-30 13:28:00,
2013-07-30 09:33:00,70.5,54.1,30.24,SW,225,3.6,3.6,56,0.00,,---,0.00,VWS V14.01,2013-07-30 13:33:00,
2013-07-30 09:38:00,70.7,56.2,30.24,WNW,292,0.0,0.0,60,0.00,,---,0.00,VWS V14.01,2013-07-30 13:38:00,
2013-07-30 09:43:00,72.0,57.3,30.24,SW,225,2.7,2.7,60,0.00,,---,0.00,VWS V14.01,2013-07-30 13:43:00,
2013-07-30 09:48:00,71.8,53.8,30.24,South,180,2.7,2.7,53,0.00,,---,0.00,VWS V14.01,2013-07-30 13:48:00,
2013-07-30 09:53:00,72.1,55.6,30.24,SW,225,2.7,2.7,56,0.00,,---,0.00,VWS V14.01,2013-07-30 13:53:00,
2013-07-30 09:58:00,72.1,55.1,30.24,West,270,2.7,2.7,55,0.00,,---,0.00,VWS V14.01,2013-07-30 13:58:00,
2013-07-30 10:03:00,71.2,52.7,30.24,SSW,202,0.0,0.0,52,0.00,,---,0.00,VWS V14.01,2013-07-30 14:03:00,
2013-07-30 10:08:00,71.4,53.4,30.24,SW,225,3.6,5.4,53,0.00,,---,0.00,VWS V14.01,2013-07-30 14:08:00,
2013-07-30 10:13:00,71.2,53.2,30.24,SSW,202,0.0,3.1,53,0.00,,---,0.00,VWS V14.01,2013-07-30 14:13:00,
2013-07-30 10:18:00,70.5,53.6,30.24,North,0,0.0,2.7,55,0.00,,---,0.00,VWS V14.01,2013-07-30 14:18:00,
2013-07-30 10:23:00,70.7,54.2,30.24,NW,315,0.0,0.0,56,0.00,,---,0.00,VWS V14.01,2013-07-30 14:23:00,
2013-07-30 10:28:00,70.5,54.6,30.24,NW,315,0.0,3.6,57,0.00,,---,0.00,VWS V14.01,2013-07-30 14:28:00,
2013-07-30 10:33:00,71.1,55.1,30.24,North,0,2.7,2.7,57,0.00,,---,0.00,VWS V14.01,2013-07-30 14:33:00,
2013-07-30 10:38:00,70.7,53.8,30.24,South,180,4.9,4.9,55,0.00,,---,0.00,VWS V14.01,2013-07-30 14:38:00,
2013-07-30 10:43:00,70.5,55.0,30.24,North,0,6.3,6.3,58,0.00,,---,0.00,VWS V14.01,2013-07-30 14:43:00,
2013-07-30 10:48:00,70.5,54.6,30.24,NW,315,5.8,5.8,57,0.00,,---,0.00,VWS V14.01,2013-07-30 14:48:00,
2013-07-30 10:53:00,71.4,55.4,30.24,North,0,2.7,4.0,57,0.00,,---,0.00,VWS V14.01,2013-07-30 14:53:00,
2013-07-30 10:58:00,72.3,53.2,30.24,South,180,5.4,5.4,51,0.00,,---,0.00,VWS V14.01,2013-07-30 14:58:00,
2013-07-30 11:03:00,71.6,54.1,30.24,SE,135,0.0,2.2,54,0.00,,---,0.00,VWS V14.01,2013-07-30 15:03:00,
2013-07-30 11:08:00,72.1,55.6,30.24,North,0,4.9,4.9,56,0.00,,---,0.00,VWS V14.01,2013-07-30 15:08:00,
2013-07-30 11:13:00,71.8,56.2,30.24,North,0,5.4,5.4,58,0.00,,---,0.00,VWS V14.01,2013-07-30 15:13:00,
2013-07-30 11:18:00,70.7,56.2,30.24,NE,45,0.0,0.0,60,0.00,,---,0.00,VWS V14.01,2013-07-30 15:18:00,
2013-07-30 11:23:00,69.3,56.1,30.24,NW,315,0.0,4.5,63,0.00,,---,0.00,VWS V14.01,2013-07-30 15:23:00,
2013-07-30 11:28:00,70.7,58.8,30.24,North,0,5.4,5.4,66,0.00,,---,0.00,VWS V14.01,2013-07-30 15:28:00,
2013-07-30 11:33:00,71.8,59.0,30.24,NE,45,3.6,3.6,64,0.00,,---,0.00,VWS V14.01,2013-07-30 15:33:00,
2013-07-30 11:38:00,73.0,56.4,30.24,NW,315,3.6,3.6,56,0.00,,---,0.00,VWS V14.01,2013-07-30 15:38:00,
2013-07-30 11:43:00,71.6,54.1,30.24,SW,225,0.0,4.0,54,0.00,,---,0.00,VWS V14.01,2013-07-30 15:43:00,
2013-07-30 11:48:00,73.0,56.9,30.24,South,180,3.1,3.1,57,0.00,,---,0.00,VWS V14.01,2013-07-30 15:48:00,
2013-07-30 11:53:00,73.4,56.3,30.24,West,270,2.7,2.7,55,0.00,,---,0.00,VWS V14.01,2013-07-30 15:53:00,
2013-07-30 11:58:00,73.8,55.1,30.24,North,0,0.0,4.0,52,0.00,,---,0.00,VWS V14.01,2013-07-30 15:58:00,
2013-07-30 12:03:00,73.6,53.8,30.24,East,90,2.7,2.7,50,0.00,,---,0.00,VWS V14.01,2013-07-30 16:03:00,
2013-07-30 12:08:00,73.2,54.6,30.24,NNW,338,0.0,0.0,52,0.00,,---,0.00,VWS V14.01,2013-07-30 16:08:00,
2013-07-30 12:13:00,72.9,54.8,30.24,NW,315,0.0,0.0,53,0.00,,---,0.00,VWS V14.01,2013-07-30 16:13:00,
2013-07-30 12:18:00,72.0,52.9,30.24,North,0,2.2,5.4,51,0.00,,---,0.00,VWS V14.01,2013-07-30 16:18:00,
2013-07-30 12:23:00,72.1,54.6,30.24,SE,135,2.7,5.8,54,0.00,,---,0.00,VWS V14.01,2013-07-30 16:23:00,
2013-07-30 12:28:00,72.9,54.8,30.24,North,0,0.0,2.2,53,0.00,,---,0.00,VWS V14.01,2013-07-30 16:28:00,
2013-07-30 12:33:00,72.3,53.7,30.24,North,0,0.0,2.7,52,0.00,,---,0.00,VWS V14.01,2013-07-30 16:33:00,
2013-07-30 12:38:00,72.5,54.4,30.24,NE,45,4.0,4.0,53,0.00,,---,0.00,VWS V14.01,2013-07-30 16:38:00,
2013-07-30 12:43:00,72.7,53.5,30.24,East,90,0.0,0.0,51,0.00,,---,0.00,VWS V14.01,2013-07-30 16:43:00,
2013-07-30 12:48:00,73.4,54.2,30.24,NW,315,4.9,4.9,51,0.00,,---,0.00,VWS V14.01,2013-07-30 16:48:00,
2013-07-30 12:53:00,73.2,52.9,30.24,NE,45,0.0,2.7,49,0.00,,---,0.00,VWS V14.01,2013-07-30 16:53:00,
2013-07-30 12:58:00,74.1,53.2,30.24,West,270,2.2,3.1,48,0.00,,---,0.00,VWS V14.01,2013-07-30 16:58:00,
2013-07-30 13:03:00,73.6,52.7,30.24,NW,315,3.1,3.1,48,0.00,,---,0.00,VWS V14.01,2013-07-30 17:03:00,
2013-07-30 13:08:00,73.8,54.5,30.24,North,0,0.0,0.0,51,0.00,,---,0.00,VWS V14.01,2013-07-30 17:08:00,
2013-07-30 13:13:00,73.9,53.6,30.24,NE,45,0.0,3.1,49,0.00,,---,0.00,VWS V14.01,2013-07-30 17:13:00,
2013-07-30 13:18:00,74.1,52.6,30.24,NW,315,0.0,0.0,47,0.00,,---,0.00,VWS V14.01,2013-07-30 17:18:00,
2013-07-30 13:23:00,74.1,52.6,30.24,WNW,292,0.0,0.0,47,0.00,,---,0.00,VWS V14.01,2013-07-30 17:23:00,
2013-07-30 13:28:00,74.5,52.4,30.24,NW,315,3.1,3.1,46,0.00,,---,0.00,VWS V14.01,2013-07-30 17:28:00,
2013-07-30 13:33:00,74.8,53.3,30.24,NW,315,3.1,3.6,47,0.00,,---,0.00,VWS V14.01,2013-07-30 17:33:00,
2013-07-30 13:38:00,74.1,51.4,30.24,NE,45,2.2,3.1,45,0.00,,---,0.00,VWS V14.01,2013-07-30 17:38:00,
2013-07-30 13:43:00,74.1,52.6,30.24,South,180,4.5,5.4,47,0.00,,---,0.00,VWS V14.01,2013-07-30 17:43:00,
2013-07-30 13:48:00,73.8,52.9,30.24,North,0,3.1,5.8,48,0.00,,---,0.00,VWS V14.01,2013-07-30 17:48:00,
2013-07-30 13:53:00,72.9,50.3,30.24,NNE,22,3.1,3.1,45,0.00,,---,0.00,VWS V14.01,2013-07-30 17:53:00,
2013-07-30 13:58:00,73.6,51.0,30.24,North,0,2.7,2.7,45,0.00,,---,0.00,VWS V14.01,2013-07-30 17:58:00,
2013-07-30 14:03:00,73.4,50.2,30.24,NW,315,2.7,2.7,44,0.00,,---,0.00,VWS V14.01,2013-07-30 18:03:00,
2013-07-30 14:08:00,74.1,50.8,30.24,NW,315,2.7,3.1,44,0.00,,---,0.00,VWS V14.01,2013-07-30 18:08:00,
2013-07-30 14:13:00,73.9,50.7,30.24,East,90,4.9,4.9,44,0.00,,---,0.00,VWS V14.01,2013-07-30 18:13:00,
2013-07-30 14:18:00,73.6,50.3,30.24,NW,315,2.7,4.0,44,0.00,,---,0.00,VWS V14.01,2013-07-30 18:18:00,
2013-07-30 14:23:00,73.9,50.1,30.24,East,90,4.0,5.4,43,0.00,,---,0.00,VWS V14.01,2013-07-30 18:23:00,
2013-07-30 14:28:00,73.2,48.8,30.24,East,90,2.7,2.7,42,0.00,,---,0.00,VWS V14.01,2013-07-30 18:28:00,
2013-07-30 14:33:00,73.2,48.8,30.24,North,0,3.1,3.1,42,0.00,,---,0.00,VWS V14.01,2013-07-30 18:33:00,
2013-07-30 14:38:00,73.6,50.3,30.24,NNW,338,3.1,3.1,44,0.00,,---,0.00,VWS V14.01,2013-07-30 18:38:00,
2013-07-30 14:43:00,73.2,49.4,30.24,East,90,2.7,3.6,43,0.00,,---,0.00,VWS V14.01,2013-07-30 18:43:00,
2013-07-30 14:48:00,73.8,49.3,30.24,West,270,4.5,4.5,42,0.00,,---,0.00,VWS V14.01,2013-07-30 18:48:00,
2013-07-30 14:53:00,72.9,48.5,30.24,NNE,22,2.7,4.9,42,0.00,,---,0.00,VWS V14.01,2013-07-30 18:53:00,
2013-07-30 14:58:00,74.3,49.8,30.24,NNW,338,3.6,3.6,42,0.00,,---,0.00,VWS V14.01,2013-07-30 18:58:00,
2013-07-30 15:03:00,74.8,50.2,30.24,North,0,0.0,0.0,42,0.00,,---,0.00,VWS V14.01,2013-07-30 19:03:00,
2013-07-30 15:08:00,74.7,50.1,30.24,South,180,3.1,3.1,42,0.00,,---,0.00,VWS V14.01,2013-07-30 19:08:00,
2013-07-30 15:13:00,74.8,50.2,30.24,NW,315,3.6,3.6,42,0.00,,---,0.00,VWS V14.01,2013-07-30 19:13:00,
2013-07-30 15:18:00,74.8,50.2,30.24,North,0,6.3,6.3,42,0.00,,---,0.00,VWS V14.01,2013-07-30 19:18:00,
2013-07-30 15:23:00,73.4,48.3,30.24,NW,315,3.1,3.6,41,0.00,,---,0.00,VWS V14.01,2013-07-30 19:23:00,
2013-07-30 15:28:00,74.1,50.2,30.24,WNW,292,3.6,3.6,43,0.00,,---,0.00,VWS V14.01,2013-07-30 19:28:00,
2013-07-30 15:33:00,73.8,49.3,30.24,NE,45,0.0,3.1,42,0.00,,---,0.00,VWS V14.01,2013-07-30 19:33:00,
2013-07-30 15:38:00,73.8,49.3,30.24,NW,315,3.1,3.1,42,0.00,,---,0.00,VWS V14.01,2013-07-30 19:38:00,
2013-07-30 15:43:00,73.8,49.3,30.24,NW,315,2.7,4.0,42,0.00,,---,0.00,VWS V14.01,2013-07-30 19:43:00,
2013-07-30 15:48:00,73.8,49.3,30.24,WNW,292,2.7,2.7,42,0.00,,---,0.00,VWS V14.01,2013-07-30 19:48:00,
2013-07-30 15:53:00,72.9,47.2,30.24,NNW,338,3.6,3.6,40,0.00,,---,0.00,VWS V14.01,2013-07-30 19:53:00,
2013-07-30 15:58:00,72.9,47.2,30.24,North,0,0.0,3.1,40,0.00,,---,0.00,VWS V14.01,2013-07-30 19:58:00,
2013-07-30 16:03:00,72.9,47.2,30.24,SW,225,3.1,4.9,40,0.00,,---,0.00,VWS V14.01,2013-07-30 20:03:00,
2013-07-30 16:08:00,72.9,47.2,30.24,WNW,292,0.0,4.5,40,0.00,,---,0.00,VWS V14.01,2013-07-30 20:08:00,
2013-07-30 16:13:00,72.9,47.2,30.24,South,180,3.6,5.4,40,0.00,,---,0.00,VWS V14.01,2013-07-30 20:13:00,
2013-07-30 16:18:00,72.9,47.2,30.24,West,270,3.1,3.1,40,0.00,,---,0.00,VWS V14.01,2013-07-30 20:18:00,
2013-07-30 16:23:00,74.3,46.4,30.24,NNW,338,0.0,0.0,37,0.00,,---,0.00,VWS V14.01,2013-07-30 20:23:00,
2013-07-30 16:28:00,74.3,46.4,30.24,South,180,2.2,3.6,37,0.00,,---,0.00,VWS V14.01,2013-07-30 20:28:00,
2013-07-30 16:33:00,74.3,46.4,30.24,South,180,3.1,3.6,37,0.00,,---,0.00,VWS V14.01,2013-07-30 20:33:00,
2013-07-30 16:38:00,73.6,47.1,30.24,South,180,3.6,3.6,39,0.00,,---,0.00,VWS V14.01,2013-07-30 20:38:00,
2013-07-30 16:43:00,73.6,47.1,30.24,NW,315,0.0,4.0,39,0.00,,---,0.00,VWS V14.01,2013-07-30 20:43:00,
2013-07-30 16:48:00,73.6,47.1,30.24,North,0,2.2,2.2,39,0.00,,---,0.00,VWS V14.01,2013-07-30 20:48:00,
2013-07-30 16:53:00,73.6,47.1,30.24,NNW,338,2.2,3.1,39,0.00,,---,0.00,VWS V14.01,2013-07-30 20:53:00,
2013-07-30 16:58:00,73.6,47.1,30.24,NE,45,3.1,3.1,39,0.00,,---,0.00,VWS V14.01,2013-07-30 20:58:00,
2013-07-30 17:03:00,73.6,47.1,30.24,NW,315,0.0,2.7,39,0.00,,---,0.00,VWS V14.01,2013-07-30 21:03:00,
2013-07-30 17:08:00,73.6,47.1,30.24,NNW,338,4.5,4.5,39,0.00,,---,0.00,VWS V14.01,2013-07-30 21:08:00,
2013-07-30 17:13:00,73.6,47.1,30.24,WNW,292,3.1,3.1,39,0.00,,---,0.00,VWS V14.01,2013-07-30 21:13:00,
2013-07-30 17:18:00,73.6,47.1,30.24,NE,45,0.0,2.2,39,0.00,,---,0.00,VWS V14.01,2013-07-30 21:18:00,
2013-07-30 17:23:00,70.7,47.7,30.24,West,270,0.0,2.7,44,0.00,,---,0.00,VWS V14.01,2013-07-30 21:23:00,
2013-07-30 17:28:00,70.7,47.7,30.24,NNE,22,0.0,4.0,44,0.00,,---,0.00,VWS V14.01,2013-07-30 21:28:00,
2013-07-30 17:34:00,70.7,47.7,30.24,South,180,0.0,3.1,44,0.00,,---,0.00,VWS V14.01,2013-07-30 21:34:00,
2013-07-30 17:39:00,70.7,47.7,30.24,South,180,4.5,4.5,44,0.00,,---,0.00,VWS V14.01,2013-07-30 21:39:00,
2013-07-30 17:44:00,70.7,47.7,30.24,SE,135,2.7,2.7,44,0.00,,---,0.00,VWS V14.01,2013-07-30 21:44:00,
2013-07-30 17:49:00,70.7,47.7,30.24,SE,135,4.0,4.9,44,0.00,,---,0.00,VWS V14.01,2013-07-30 21:49:00,
2013-07-30 17:54:00,70.5,47.6,30.24,ESE,112,0.0,0.0,44,0.00,,---,0.00,VWS V14.01,2013-07-30 21:54:00,
2013-07-30 17:58:00,70.5,47.6,30.24,WSW,248,0.0,4.0,44,0.00,,---,0.00,VWS V14.01,2013-07-30 21:58:00,
2013-07-30 18:03:00,70.5,47.6,30.24,WNW,292,0.0,0.0,44,0.00,,---,0.00,VWS V14.01,2013-07-30 22:03:00,
2013-07-30 18:08:00,70.5,47.0,30.24,North,0,3.1,3.6,43,0.00,,---,0.00,VWS V14.01,2013-07-30 22:08:00,
2013-07-30 18:14:00,70.5,47.0,30.24,NE,45,4.0,4.0,43,0.00,,---,0.00,VWS V14.01,2013-07-30 22:14:00,
2013-07-30 18:19:00,70.5,45.7,30.24,NNE,22,0.0,0.0,41,0.00,,---,0.00,VWS V14.01,2013-07-30 22:19:00,
2013-07-30 18:24:00,70.5,46.3,30.24,North,0,0.0,0.0,42,0.00,,---,0.00,VWS V14.01,2013-07-30 22:24:00,
2013-07-30 18:29:00,70.5,45.7,30.24,South,180,0.0,0.0,41,0.00,,---,0.00,VWS V14.01,2013-07-30 22:29:00,
2013-07-30 18:34:00,70.5,45.1,30.24,South,180,0.0,0.0,40,0.00,,---,0.00,VWS V14.01,2013-07-30 22:34:00,
2013-07-30 18:39:00,70.5,45.1,30.24,NW,315,0.0,0.0,40,0.00,,---,0.00,VWS V14.01,2013-07-30 22:39:00,
2013-07-30 18:44:00,70.7,44.5,30.24,North,0,2.7,2.7,39,0.00,,---,0.00,VWS V14.01,2013-07-30 22:44:00,
2013-07-30 18:49:00,71.2,44.4,30.24,NW,315,0.0,0.0,38,0.00,,---,0.00,VWS V14.01,2013-07-30 22:49:00,
2013-07-30 18:54:00,71.4,44.5,30.24,SSE,158,0.0,0.0,38,0.00,,---,0.00,VWS V14.01,2013-07-30 22:54:00,
2013-07-30 18:59:00,71.4,44.5,30.24,South,180,0.0,0.0,38,0.00,,---,0.00,VWS V14.01,2013-07-30 22:59:00,
2013-07-30 19:04:00,71.1,44.2,30.24,WNW,292,0.0,0.0,38,0.00,,---,0.00,VWS V14.01,2013-07-30 23:04:00,
2013-07-30 19:09:00,70.5,42.3,30.21,NNW,338,0.0,0.0,36,0.00,,---,0.00,VWS V14.01,2013-07-30 23:09:00,
2013-07-30 19:14:00,70.3,42.9,30.21,NNW,338,0.0,0.0,37,0.00,,---,0.00,VWS V14.01,2013-07-30 23:14:00,
2013-07-30 19:19:00,70.2,43.4,30.21,NNW,338,0.0,0.0,38,0.00,,---,0.00,VWS V14.01,2013-07-30 23:19:00,
2013-07-30 19:24:00,69.8,43.8,30.21,NNW,338,0.0,0.0,39,0.00,,---,0.00,VWS V14.01,2013-07-30 23:24:00,
2013-07-30 19:29:00,69.4,45.4,30.21,NNW,338,0.0,0.0,42,0.00,,---,0.00,VWS V14.01,2013-07-30 23:29:00,
2013-07-30 19:34:00,68.9,46.1,30.21,NNW,338,0.0,0.0,44,0.00,,---,0.00,VWS V14.01,2013-07-30 23:34:00,
2013-07-30 19:39:00,68.7,46.5,30.21,NNW,338,0.0,0.0,45,0.00,,---,0.00,VWS V14.01,2013-07-30 23:39:00,
2013-07-30 19:44:00,68.4,46.8,30.21,NNW,338,0.0,0.0,46,0.00,,---,0.00,VWS V14.01,2013-07-30 23:44:00,
2013-07-30 19:49:00,68.0,47.0,30.21,NNW,338,0.0,0.0,47,0.00,,---,0.00,VWS V14.01,2013-07-30 23:49:00,
2013-07-30 19:54:00,67.6,47.8,30.21,NNW,338,0.0,0.0,49,0.00,,---,0.00,VWS V14.01,2013-07-30 23:54:00,
2013-07-30 19:59:00,67.3,48.5,30.21,NNW,338,0.0,0.0,51,0.00,,---,0.00,VWS V14.01,2013-07-30 23:59:00,
2013-07-30 20:04:00,66.9,48.7,30.21,NNW,338,0.0,0.0,52,0.00,,---,0.00,VWS V14.01,2013-07-31 00:04:00,
2013-07-30 20:09:00,66.4,49.2,30.21,NNW,338,0.0,0.0,54,0.00,,---,0.00,VWS V14.01,2013-07-31 00:09:00,
2013-07-30 20:14:00,66.0,49.9,30.21,NNW,338,0.0,0.0,56,0.00,,---,0.00,VWS V14.01,2013-07-31 00:14:00,
2013-07-30 20:19:00,65.5,49.9,30.21,NNW,338,0.0,0.0,57,0.00,,---,0.00,VWS V14.01,2013-07-31 00:19:00,
2013-07-30 20:24:00,64.9,50.3,30.21,NNW,338,0.0,0.0,59,0.00,,---,0.00,VWS V14.01,2013-07-31 00:24:00,
2013-07-30 20:29:00,64.6,50.8,30.21,NNW,338,0.0,0.0,61,0.00,,---,0.00,VWS V14.01,2013-07-31 00:29:00,
2013-07-30 20:34:00,64.2,52.2,30.21,NNW,338,0.0,0.0,65,0.00,,---,0.00,VWS V14.01,2013-07-31 00:34:00,
2013-07-30 20:39:00,63.7,52.5,30.21,NNW,338,0.0,0.0,67,0.00,,---,0.00,VWS V14.01,2013-07-31 00:39:00,
2013-07-30 20:44:00,63.3,53.0,30.21,NNW,338,0.0,0.0,69,0.00,,---,0.00,VWS V14.01,2013-07-31 00:44:00,
2013-07-30 20:49:00,63.0,53.4,30.21,NNW,338,0.0,0.0,71,0.00,,---,0.00,VWS V14.01,2013-07-31 00:49:00,
2013-07-30 20:54:00,62.4,53.7,30.21,NNW,338,0.0,0.0,73,0.00,,---,0.00,VWS V14.01,2013-07-31 00:54:00,
2013-07-30 20:59:00,62.1,53.7,30.21,NNW,338,0.0,0.0,74,0.00,,---,0.00,VWS V14.01,2013-07-31 00:59:00,
2013-07-30 21:04:00,61.9,54.6,30.21,NNW,338,0.0,0.0,77,0.00,,---,0.00,VWS V14.01,2013-07-31 01:04:00,
2013-07-30 21:09:00,61.5,55.0,30.21,NNW,338,0.0,0.0,79,0.00,,---,0.00,VWS V14.01,2013-07-31 01:09:00,
2013-07-30 21:14:00,61.3,55.1,30.21,NNW,338,0.0,0.0,80,0.00,,---,0.00,VWS V14.01,2013-07-31 01:14:00,
2013-07-30 21:19:00,61.0,55.1,30.21,NNW,338,0.0,0.0,81,0.00,,---,0.00,VWS V14.01,2013-07-31 01:19:00,
2013-07-30 21:24:00,60.8,55.3,30.21,NNW,338,0.0,0.0,82,0.00,,---,0.00,VWS V14.01,2013-07-31 01:24:00,
2013-07-30 21:29:00,60.6,55.4,30.21,NNW,338,0.0,0.0,83,0.00,,---,0.00,VWS V14.01,2013-07-31 01:29:00,
2013-07-30 21:34:00,60.4,55.9,30.21,NNW,338,0.0,0.0,85,0.00,,---,0.00,VWS V14.01,2013-07-31 01:34:00,
2013-07-30 21:39:00,60.1,55.9,30.21,NNW,338,0.0,0.0,86,0.00,,---,0.00,VWS V14.01,2013-07-31 01:39:00,
2013-07-30 21:44:00,60.1,56.2,30.21,NNW,338,0.0,0.0,87,0.00,,---,0.00,VWS V14.01,2013-07-31 01:44:00,
2013-07-30 21:49:00,59.9,56.3,30.21,NNW,338,0.0,0.0,88,0.00,,---,0.00,VWS V14.01,2013-07-31 01:49:00,
2013-07-30 21:54:00,59.7,56.2,30.21,NNW,338,0.0,0.0,88,0.00,,---,0.00,VWS V14.01,2013-07-31 01:54:00,
2013-07-30 21:59:00,59.5,56.3,30.21,NNW,338,0.0,0.0,89,0.00,,---,0.00,VWS V14.01,2013-07-31 01:59:00,
2013-07-30 22:04:00,59.4,56.1,30.21,NNW,338,0.0,0.0,89,0.00,,---,0.00,VWS V14.01,2013-07-31 02:04:00,
2013-07-30 22:09:00,59.4,56.1,30.21,NNW,338,0.0,0.0,89,0.00,,---,0.00,VWS V14.01,2013-07-31 02:09:00,
2013-07-30 22:14:00,59.2,56.2,30.21,NNW,338,0.0,0.0,90,0.00,,---,0.00,VWS V14.01,2013-07-31 02:14:00,
2013-07-30 22:19:00,59.0,56.1,30.21,NNW,338,0.0,0.0,90,0.00,,---,0.00,VWS V14.01,2013-07-31 02:19:00,
2013-07-30 22:24:00,58.8,56.2,30.21,NNW,338,0.0,0.0,91,0.00,,---,0.00,VWS V14.01,2013-07-31 02:24:00,
2013-07-30 22:29:00,58.8,56.2,30.21,NNW,338,0.0,0.0,91,0.00,,---,0.00,VWS V14.01,2013-07-31 02:29:00,
2013-07-30 22:34:00,58.8,56.2,30.21,NNW,338,0.0,0.0,91,0.00,,---,0.00,VWS V14.01,2013-07-31 02:34:00,
2013-07-30 22:39:00,58.8,56.2,30.21,NNW,338,0.0,0.0,91,0.00,,---,0.00,VWS V14.01,2013-07-31 02:39:00,
2013-07-30 22:44:00,58.8,56.2,30.21,NNW,338,0.0,0.0,91,0.00,,---,0.00,VWS V14.01,2013-07-31 02:44:00,
2013-07-30 22:49:00,58.8,56.2,30.21,NNW,338,0.0,0.0,91,0.00,,---,0.00,VWS V14.01,2013-07-31 02:49:00,
2013-07-30 22:54:00,58.8,56.5,30.21,NNW,338,0.0,0.0,92,0.00,,---,0.00,VWS V14.01,2013-07-31 02:54:00,
2013-07-30 22:59:00,58.8,56.5,30.21,NNW,338,0.0,0.0,92,0.00,,---,0.00,VWS V14.01,2013-07-31 02:59:00,
2013-07-30 23:04:00,58.8,56.5,30.21,NNW,338,0.0,0.0,92,0.00,,---,0.00,VWS V14.01,2013-07-31 03:04:00,
2013-07-30 23:09:00,58.8,56.5,30.21,NNW,338,0.0,0.0,92,0.00,,---,0.00,VWS V14.01,2013-07-31 03:09:00,
2013-07-30 23:14:00,58.8,56.5,30.21,NNW,338,0.0,0.0,92,0.00,,---,0.00,VWS V14.01,2013-07-31 03:14:00,
2013-07-30 23:19:00,58.8,56.5,30.21,NNW,338,0.0,0.0,92,0.00,,---,0.00,VWS V14.01,2013-07-31 03:19:00,
2013-07-30 23:24:00,58.8,56.5,30.21,NNW,338,0.0,0.0,92,0.00,,---,0.00,VWS V14.01,2013-07-31 03:24:00,
2013-07-30 23:29:00,59.0,56.4,30.21,NNW,338,0.0,0.0,91,0.00,,---,0.00,VWS V14.01,2013-07-31 03:29:00,
2013-07-30 23:34:00,59.0,56.4,30.21,NNW,338,0.0,0.0,91,0.00,,---,0.00,VWS V14.01,2013-07-31 03:34:00,
2013-07-30 23:39:00,59.2,56.6,30.21,NNW,338,0.0,0.0,91,0.00,,---,0.00,VWS V14.01,2013-07-31 03:39:00,
2013-07-30 23:44:00,59.0,56.4,30.21,NNW,338,0.0,0.0,91,0.00,,---,0.00,VWS V14.01,2013-07-31 03:44:00,
2013-07-30 23:49:00,59.0,56.4,30.21,NNW,338,0.0,0.0,91,0.00,,---,0.00,VWS V14.01,2013-07-31 03:49:00,
2013-07-30 23:54:00,58.8,56.5,30.21,NNW,338,0.0,0.0,92,0.00,,---,0.00,VWS V14.01,2013-07-31 03:54:00,
2013-07-30 23:59:00,58.8,56.5,30.21,NNW,338,0.0,0.0,92,0.00,,---,0.00,VWS V14.01,2013-07-31 03:59:00,